Location: *
(37.5724°S, 58.0067°E)
Time: 20:53:35
(UTC+00:00)

YAOGAN 1 - Pass Details

Date: 26 September 2020
Orbit: 618 x 620 km, 97.9° (Epoch: 27 October)

Event Time Altitude Azimuth Distance (km) Brightness Sun altitude
Rises 15:25:47 0° 164° (SSE) 2,934 6.0 -16.0°
Reaches altitude 10° 15:28:01 10° 161° (SSE) 2,020 5.1 -16.4°
Maximum altitude 15:32:23 62° 79° (E) 708 2.5 -17.3°
Drops below altitude 10° 15:36:41 10° 358° (N) 1,991 5.0 -18.1°
Sets 15:38:52 0° 354° (N) 2,889 5.9 -18.5°
